Location: Newark
(47.5833°N, 8.1500°E)
Time: 11:52:33
(UTC+00:00)

Vanguard 2 Rocket - Pass Details

Date: 30 October 2020
Orbit: 553 x 3326 km, 32.9° (Epoch: 04 December)

Event Time Altitude Azimuth Distance (km) Brightness Sun altitude
Rises 20:55:06 0° 244° (WSW) 3,006 - -46.3°
Reaches altitude 10° 20:58:37 10° 214° (SW) 2,390 - -46.7°
Maximum altitude 21:00:56 13° 189° (S) 2,438 - -47.0°
Drops below altitude 10° 21:03:39 10° 165° (SSE) 2,919 - -47.4°
Sets 21:09:10 0° 140° (SE) 4,529 - -48.1°
